sat.trackr.live / text

‹ back to catalog

STARLINK-5806

NORAD 56007 · 2023-042X

PAYLOAD ACTIVE UNKNOWN

§ Identity

Operator
Country
US
Launch date
2023-03-24
Launch site
AFETR
Launch vehicle
Mass (kg)
RCS (m²)

Purposes: comms

External: N2YO · Heavens-Above · Gunter

§ Orbital elements

Epoch: 2026-05-24T22:57:47.284992Z

Period
94.27 min
Inclination
43.0058°
Eccentricity
0.0001805
Mean motion
15.27575817 rev/d
Perigee alt
481.8 km
Apogee alt
484.3 km
Semi-major
6,861.2 km
B*
-2.5438e-6
RAAN
348.8746°
Arg perigee
270.9056°
Mean anomaly
89.1589°
Rev number
17,453

§ Raw data

STARLINK-58061 56007U 23042X   26144.95679728 -.00000332  00000+0 -25438-5 0  99952 56007  43.0058 348.8746 0001805 270.9056  89.1589 15.27575817174531

JSON: /api/v1/satellites/56007 · /tle

For live sub-satellite position, see the globe view (requires WebGL).

§ Visibility from observer

Set your observer location to see the next 7 days of passes ≥ 10°. The values pass through the URL so the page stays shareable.

No JS? Fill the form by hand. The geolocation button needs JavaScript.